Time,TemperatureF,DewpointF,PressureIn,WindDirection,WindDirectionDegrees,WindSpeedMPH,WindSpeedGustMPH,Humidity,HourlyPrecipIn,Conditions,Clouds,dailyrainin,SoftwareType,DateUTC
2013-03-11 00:02:00,49.8,34.2,30.04,NE,45,0.0,0.4,55,0.00,,,0.00,WUHU216HW,2013-03-11 04:02:00,
2013-03-11 00:08:00,49.6,34.0,30.05,NE,45,0.0,0.0,55,0.00,,,0.00,WUHU216HW,2013-03-11 04:08:00,
2013-03-11 00:13:00,49.6,34.0,30.05,NE,45,0.0,0.0,55,0.00,,,0.00,WUHU216HW,2013-03-11 04:13:00,
2013-03-11 00:19:00,49.6,34.0,30.05,NE,45,0.0,0.0,55,0.00,,,0.00,WUHU216HW,2013-03-11 04:19:00,
2013-03-11 00:24:00,49.6,34.0,30.05,NE,45,0.0,0.0,55,0.00,,,0.00,WUHU216HW,2013-03-11 04:24:00,
2013-03-11 00:29:00,49.2,34.1,30.04,NE,45,0.0,0.0,56,0.00,,,0.00,WUHU216HW,2013-03-11 04:29:00,
2013-03-11 00:34:00,49.2,34.1,30.04,NE,45,0.0,0.0,56,0.00,,,0.00,WUHU216HW,2013-03-11 04:34:00,
2013-03-11 00:39:00,49.1,34.0,30.04,NE,45,0.0,0.0,56,0.00,,,0.00,WUHU216HW,2013-03-11 04:39:00,
2013-03-11 00:44:00,48.9,33.8,30.04,NE,45,0.0,0.0,56,0.00,,,0.00,WUHU216HW,2013-03-11 04:44:00,
2013-03-11 00:49:00,48.9,33.8,30.04,NE,45,0.0,0.0,56,0.00,,,0.00,WUHU216HW,2013-03-11 04:49:00,
2013-03-11 00:55:00,48.9,34.3,30.04,NE,45,0.0,0.0,57,0.00,,,0.00,WUHU216HW,2013-03-11 04:55:00,
2013-03-11 01:01:00,48.9,34.3,30.03,NE,45,0.0,0.0,57,0.00,,,0.00,WUHU216HW,2013-03-11 05:01:00,
2013-03-11 01:11:00,48.7,34.1,30.03,NE,45,0.0,0.0,57,0.00,,,0.00,WUHU216HW,2013-03-11 05:11:00,
2013-03-11 01:16:00,48.7,34.1,30.03,NE,45,0.0,0.0,57,0.00,,,0.00,WUHU216HW,2013-03-11 05:16:00,
2013-03-11 01:22:00,48.7,34.1,30.02,NE,45,0.0,0.0,57,0.00,,,0.00,WUHU216HW,2013-03-11 05:22:00,
2013-03-11 01:27:00,48.7,34.1,30.02,NE,45,0.0,0.0,57,0.00,,,0.00,WUHU216HW,2013-03-11 05:27:00,
2013-03-11 01:32:00,48.7,34.6,30.02,NE,45,0.0,0.0,58,0.00,,,0.00,WUHU216HW,2013-03-11 05:32:00,
2013-03-11 01:37:00,48.7,34.6,30.02,NE,45,0.0,0.0,58,0.00,,,0.00,WUHU216HW,2013-03-11 05:37:00,
2013-03-11 01:42:00,48.7,34.6,30.02,NE,45,0.0,0.0,58,0.00,,,0.00,WUHU216HW,2013-03-11 05:42:00,
2013-03-11 01:48:00,48.9,34.7,30.01,NE,45,0.0,0.0,58,0.00,,,0.00,WUHU216HW,2013-03-11 05:48:00,
2013-03-11 01:53:00,48.9,34.7,30.01,NE,45,0.0,0.0,58,0.00,,,0.00,WUHU216HW,2013-03-11 05:53:00,
2013-03-11 01:58:00,48.7,34.6,30.01,NE,45,0.0,0.0,58,0.00,,,0.00,WUHU216HW,2013-03-11 05:58:00,
2013-03-11 02:03:00,48.7,34.6,30.01,NE,45,0.0,0.0,58,0.00,,,0.00,WUHU216HW,2013-03-11 06:03:00,
2013-03-11 02:09:00,48.7,34.6,30.01,NE,45,0.0,0.0,58,0.00,,,0.00,WUHU216HW,2013-03-11 06:09:00,
2013-03-11 02:14:00,48.7,34.6,30.01,NE,45,0.0,0.0,58,0.00,,,0.00,WUHU216HW,2013-03-11 06:14:00,
2013-03-11 02:19:00,48.7,34.6,30.01,NE,45,0.0,0.0,58,0.00,,,0.00,WUHU216HW,2013-03-11 06:19:00,
2013-03-11 02:25:00,48.7,34.6,30.00,NE,45,0.0,0.0,58,0.00,,,0.00,WUHU216HW,2013-03-11 06:25:00,
2013-03-11 02:30:00,48.5,34.4,30.00,NE,45,0.0,0.0,58,0.00,,,0.00,WUHU216HW,2013-03-11 06:30:00,
2013-03-11 02:36:00,48.5,34.9,30.00,NE,45,0.0,0.0,59,0.00,,,0.00,WUHU216HW,2013-03-11 06:36:00,
2013-03-11 02:47:00,48.7,35.0,30.00,NE,45,0.0,0.0,59,0.00,,,0.00,WUHU216HW,2013-03-11 06:47:00,
2013-03-11 02:58:00,48.7,35.0,29.99,NE,45,0.0,0.0,59,0.00,,,0.00,WUHU216HW,2013-03-11 06:58:00,
2013-03-11 03:03:00,48.5,34.9,29.99,NE,45,0.0,0.0,59,0.00,,,0.00,WUHU216HW,2013-03-11 07:03:00,
2013-03-11 03:08:00,48.3,34.7,29.99,NE,45,0.0,0.0,59,0.00,,,0.00,WUHU216HW,2013-03-11 07:08:00,
2013-03-11 03:13:00,48.3,34.7,29.99,NE,45,0.0,0.0,59,0.00,,,0.00,WUHU216HW,2013-03-11 07:13:00,
2013-03-11 03:19:00,48.3,34.7,29.99,NE,45,0.0,0.0,59,0.00,,,0.00,WUHU216HW,2013-03-11 07:19:00,
2013-03-11 03:24:00,48.3,34.7,29.98,NE,45,0.0,0.0,59,0.00,,,0.00,WUHU216HW,2013-03-11 07:24:00,
2013-03-11 03:30:00,48.3,34.7,29.98,NE,45,0.0,0.0,59,0.00,,,0.00,WUHU216HW,2013-03-11 07:30:00,
2013-03-11 03:35:00,48.2,34.5,29.97,NE,45,0.0,0.0,59,0.00,,,0.00,WUHU216HW,2013-03-11 07:35:00,
2013-03-11 03:41:00,48.2,35.0,29.97,NE,45,0.0,0.0,60,0.00,,,0.00,WUHU216HW,2013-03-11 07:41:00,
2013-03-11 03:52:00,48.2,35.0,29.96,NE,45,0.0,0.0,60,0.00,,,0.00,WUHU216HW,2013-03-11 07:52:00,
2013-03-11 03:57:00,48.2,35.0,29.96,NE,45,0.0,0.0,60,0.00,,,0.00,WUHU216HW,2013-03-11 07:57:00,
2013-03-11 04:02:00,48.2,35.0,29.96,NE,45,0.0,0.0,60,0.00,,,0.00,WUHU216HW,2013-03-11 08:02:00,
2013-03-11 04:07:00,48.2,35.0,29.96,NE,45,0.0,0.0,60,0.00,,,0.00,WUHU216HW,2013-03-11 08:07:00,
2013-03-11 04:13:00,48.2,35.0,29.97,NE,45,0.0,0.0,60,0.00,,,0.00,WUHU216HW,2013-03-11 08:13:00,
2013-03-11 04:18:00,48.2,35.0,29.97,NE,45,0.0,0.0,60,0.00,,,0.00,WUHU216HW,2013-03-11 08:18:00,
2013-03-11 04:23:00,48.2,35.0,29.95,NE,45,0.0,0.0,60,0.00,,,0.00,WUHU216HW,2013-03-11 08:23:00,
2013-03-11 04:29:00,48.0,34.8,29.95,NE,45,0.0,0.0,60,0.00,,,0.00,WUHU216HW,2013-03-11 08:29:00,
2013-03-11 04:35:00,48.0,34.7,29.95,NE,45,0.0,0.0,60,0.00,,,0.00,WUHU216HW,2013-03-11 08:35:00,
2013-03-11 04:40:00,47.8,34.7,29.94,NE,45,0.0,0.0,60,0.00,,,0.00,WUHU216HW,2013-03-11 08:40:00,
2013-03-11 04:46:00,47.4,34.3,29.94,NE,45,0.0,0.0,60,0.00,,,0.00,WUHU216HW,2013-03-11 08:46:00,
2013-03-11 04:51:00,47.4,34.3,29.94,NE,45,0.0,0.0,60,0.00,,,0.00,WUHU216HW,2013-03-11 08:51:00,
2013-03-11 04:56:00,47.4,34.3,29.95,NE,45,0.0,0.0,60,0.00,,,0.00,WUHU216HW,2013-03-11 08:56:00,
2013-03-11 05:06:00,47.4,34.7,29.95,NE,45,0.0,0.6,61,0.00,,,0.00,WUHU216HW,2013-03-11 09:06:00,
2013-03-11 05:11:00,47.4,34.7,29.95,NE,45,0.0,0.6,61,0.00,,,0.00,WUHU216HW,2013-03-11 09:11:00,
2013-03-11 05:17:00,47.6,34.8,29.95,NE,45,0.0,0.0,61,0.00,,,0.00,WUHU216HW,2013-03-11 09:17:00,
2013-03-11 05:23:00,47.8,34.7,29.95,NE,45,0.0,0.0,60,0.00,,,0.00,WUHU216HW,2013-03-11 09:23:00,
2013-03-11 05:28:00,47.8,34.7,29.95,NE,45,0.0,0.0,60,0.00,,,0.00,WUHU216HW,2013-03-11 09:28:00,
2013-03-11 05:33:00,47.8,34.7,29.95,NE,45,0.0,0.0,60,0.00,,,0.00,WUHU216HW,2013-03-11 09:33:00,
2013-03-11 05:38:00,47.8,34.7,29.95,NE,45,0.0,0.0,60,0.00,,,0.00,WUHU216HW,2013-03-11 09:38:00,
2013-03-11 05:44:00,47.8,34.7,29.95,NE,45,0.0,0.0,60,0.00,,,0.00,WUHU216HW,2013-03-11 09:44:00,
2013-03-11 05:50:00,47.6,34.7,29.95,NE,45,0.0,0.0,60,0.00,,,0.00,WUHU216HW,2013-03-11 09:50:00,
2013-03-11 05:55:00,47.6,34.5,29.95,NE,45,0.0,0.0,60,0.00,,,0.00,WUHU216HW,2013-03-11 09:55:00,
2013-03-11 06:06:00,47.4,34.7,29.95,NE,45,0.0,0.0,61,0.00,,,0.00,WUHU216HW,2013-03-11 10:06:00,
2013-03-11 06:11:00,47.4,34.7,29.96,NE,45,0.0,0.0,61,0.00,,,0.00,WUHU216HW,2013-03-11 10:11:00,
2013-03-11 06:22:00,47.1,34.3,29.96,NE,45,0.0,0.0,61,0.00,,,0.00,WUHU216HW,2013-03-11 10:22:00,
2013-03-11 06:28:00,46.9,34.1,29.96,NE,45,0.0,0.0,61,0.00,,,0.00,WUHU216HW,2013-03-11 10:28:00,
2013-03-11 06:34:00,46.5,33.8,29.96,NE,45,0.0,0.0,61,0.00,,,0.00,WUHU216HW,2013-03-11 10:34:00,
2013-03-11 06:39:00,46.5,33.8,29.95,NE,45,0.0,0.0,61,0.00,,,0.00,WUHU216HW,2013-03-11 10:39:00,
2013-03-11 06:44:00,46.5,33.8,29.96,NE,45,0.0,0.0,61,0.00,,,0.00,WUHU216HW,2013-03-11 10:44:00,
2013-03-11 06:49:00,46.5,34.2,29.96,NE,45,0.0,0.0,62,0.00,,,0.00,WUHU216HW,2013-03-11 10:49:00,
2013-03-11 06:55:00,46.4,34.0,29.96,NE,45,0.0,0.0,62,0.00,,,0.00,WUHU216HW,2013-03-11 10:55:00,
2013-03-11 07:00:00,46.2,33.8,29.96,NE,45,0.0,0.0,62,0.00,,,0.00,WUHU216HW,2013-03-11 11:00:00,
2013-03-11 07:06:00,46.5,34.2,29.96,NE,45,0.0,0.0,62,0.00,,,0.00,WUHU216HW,2013-03-11 11:06:00,
2013-03-11 07:16:00,46.5,34.2,29.97,NE,45,0.0,0.8,62,0.00,,,0.00,WUHU216HW,2013-03-11 11:16:00,
2013-03-11 07:22:00,46.5,34.2,29.97,NE,45,0.0,0.8,62,0.00,,,0.00,WUHU216HW,2013-03-11 11:22:00,
2013-03-11 07:28:00,46.2,33.8,29.96,NE,45,0.0,0.0,62,0.00,,,0.00,WUHU216HW,2013-03-11 11:28:00,
2013-03-11 07:33:00,46.2,33.8,29.96,NE,45,0.0,0.0,62,0.00,,,0.00,WUHU216HW,2013-03-11 11:33:00,
2013-03-11 07:39:00,46.0,33.7,29.97,NE,45,0.0,0.0,62,0.00,,,0.00,WUHU216HW,2013-03-11 11:39:00,
2013-03-11 07:44:00,46.0,34.1,29.97,NE,45,0.0,0.0,63,0.00,,,0.00,WUHU216HW,2013-03-11 11:44:00,
2013-03-11 07:49:00,46.0,34.1,29.97,NE,45,0.0,0.0,63,0.00,,,0.00,WUHU216HW,2013-03-11 11:49:00,
2013-03-11 07:54:00,46.0,34.1,29.96,NE,45,0.0,0.0,63,0.00,,,0.00,WUHU216HW,2013-03-11 11:54:00,
2013-03-11 08:00:00,46.2,34.2,29.97,NE,45,0.0,0.0,63,0.00,,,0.00,WUHU216HW,2013-03-11 12:00:00,
2013-03-11 08:05:00,46.0,34.2,29.97,NE,45,0.0,0.0,63,0.00,,,0.00,WUHU216HW,2013-03-11 12:05:00,
2013-03-11 08:11:00,46.2,34.6,29.97,NE,45,0.0,0.0,64,0.00,,,0.00,WUHU216HW,2013-03-11 12:11:00,
2013-03-11 08:22:00,46.5,35.0,29.97,NE,45,0.0,0.0,64,0.00,,,0.00,WUHU216HW,2013-03-11 12:22:00,
2013-03-11 08:27:00,46.5,35.0,29.97,NE,45,0.0,0.0,64,0.00,,,0.00,WUHU216HW,2013-03-11 12:27:00,
2013-03-11 08:33:00,46.5,35.0,29.97,NE,45,0.0,0.0,64,0.00,,,0.00,WUHU216HW,2013-03-11 12:33:00,
2013-03-11 08:39:00,46.5,35.0,29.97,NE,45,0.0,0.0,64,0.00,,,0.00,WUHU216HW,2013-03-11 12:39:00,
2013-03-11 08:44:00,46.9,35.3,29.97,NE,45,0.0,0.0,64,0.00,,,0.00,WUHU216HW,2013-03-11 12:44:00,
2013-03-11 08:50:00,47.1,35.5,29.97,NE,45,0.0,0.0,64,0.00,,,0.00,WUHU216HW,2013-03-11 12:50:00,
2013-03-11 08:56:00,47.1,35.5,29.98,NE,45,0.0,0.0,64,0.00,,,0.00,WUHU216HW,2013-03-11 12:56:00,
2013-03-11 09:02:00,47.3,35.7,29.98,NE,45,0.0,0.0,64,0.00,,,0.00,WUHU216HW,2013-03-11 13:02:00,
2013-03-11 09:07:00,47.8,36.2,29.97,NE,45,0.0,0.0,64,0.00,,,0.00,WUHU216HW,2013-03-11 13:07:00,
2013-03-11 09:13:00,48.0,36.3,29.98,NE,45,0.0,0.0,64,0.00,,,0.00,WUHU216HW,2013-03-11 13:13:00,
2013-03-11 09:18:00,48.3,37.1,29.98,NE,45,0.0,0.0,65,0.00,,,0.00,WUHU216HW,2013-03-11 13:18:00,
2013-03-11 09:23:00,48.5,37.2,29.98,NE,45,0.0,0.0,65,0.00,,,0.00,WUHU216HW,2013-03-11 13:23:00,
2013-03-11 09:28:00,48.7,37.4,29.98,NE,45,0.0,0.0,65,0.00,,,0.00,WUHU216HW,2013-03-11 13:28:00,
2013-03-11 09:33:00,49.2,38.3,29.98,NE,45,0.0,0.0,66,0.00,,,0.00,WUHU216HW,2013-03-11 13:33:00,
2013-03-11 09:39:00,49.8,38.6,29.98,NE,45,0.0,0.0,66,0.00,,,0.00,WUHU216HW,2013-03-11 13:39:00,
2013-03-11 09:44:00,50.0,39.4,29.98,NE,45,0.0,0.0,67,0.00,,,0.00,WUHU216HW,2013-03-11 13:44:00,
2013-03-11 09:50:00,50.5,39.9,29.99,NE,45,0.0,0.0,67,0.00,,,0.00,WUHU216HW,2013-03-11 13:50:00,
2013-03-11 09:55:00,50.9,40.3,29.99,NE,45,0.0,0.0,67,0.00,,,0.00,WUHU216HW,2013-03-11 13:55:00,
2013-03-11 10:01:00,51.4,40.8,29.98,NE,45,0.0,0.0,67,0.00,,,0.00,WUHU216HW,2013-03-11 14:01:00,
2013-03-11 10:07:00,51.8,40.6,29.99,NE,45,0.0,0.0,66,0.00,,,0.00,WUHU216HW,2013-03-11 14:07:00,
2013-03-11 10:12:00,52.3,41.6,29.99,NE,45,0.0,0.0,67,0.00,,,0.00,WUHU216HW,2013-03-11 14:12:00,
2013-03-11 10:18:00,52.8,41.3,29.98,NE,45,0.0,0.0,65,0.00,,,0.00,WUHU216HW,2013-03-11 14:18:00,
2013-03-11 10:23:00,53.4,41.5,29.98,NE,45,0.0,0.0,64,0.00,,,0.00,WUHU216HW,2013-03-11 14:23:00,
2013-03-11 10:29:00,54.3,41.1,29.97,NE,45,0.0,0.0,61,0.00,,,0.00,WUHU216HW,2013-03-11 14:29:00,
2013-03-11 10:34:00,54.6,41.0,29.97,NE,45,0.0,0.0,60,0.00,,,0.00,WUHU216HW,2013-03-11 14:34:00,
2013-03-11 10:40:00,55.4,41.7,29.97,NE,45,0.0,0.0,60,0.00,,,0.00,WUHU216HW,2013-03-11 14:40:00,
2013-03-11 10:45:00,55.9,41.7,29.97,NE,45,0.0,0.0,59,0.00,,,0.00,WUHU216HW,2013-03-11 14:45:00,
2013-03-11 10:50:00,57.0,42.4,29.97,NE,45,0.0,0.0,58,0.00,,,0.00,WUHU216HW,2013-03-11 14:50:00,
2013-03-11 10:56:00,57.7,42.6,29.97,NE,45,0.0,0.0,57,0.00,,,0.00,WUHU216HW,2013-03-11 14:56:00,
2013-03-11 11:06:00,58.8,42.6,29.97,NE,45,0.0,2.2,55,0.00,,,0.00,WUHU216HW,2013-03-11 15:06:00,
2013-03-11 11:12:00,59.5,43.3,29.97,NE,45,0.0,1.3,55,0.00,,,0.00,WUHU216HW,2013-03-11 15:12:00,
2013-03-11 11:17:00,59.9,43.1,29.97,NE,45,0.0,0.0,54,0.00,,,0.00,WUHU216HW,2013-03-11 15:17:00,
2013-03-11 11:22:00,60.4,43.1,29.96,NE,45,0.0,0.0,53,0.00,,,0.00,WUHU216HW,2013-03-11 15:22:00,
2013-03-11 11:28:00,61.1,43.3,29.96,NE,45,0.0,0.0,52,0.00,,,0.00,WUHU216HW,2013-03-11 15:28:00,
2013-03-11 11:33:00,61.7,42.8,29.95,NE,45,1.3,1.3,50,0.00,,,0.00,WUHU216HW,2013-03-11 15:33:00,
2013-03-11 11:39:00,62.4,42.9,29.95,NE,45,0.0,3.1,49,0.00,,,0.00,WUHU216HW,2013-03-11 15:39:00,
2013-03-11 11:44:00,62.9,43.4,29.95,ENE,68,0.0,3.1,49,0.00,,,0.00,WUHU216HW,2013-03-11 15:44:00,
2013-03-11 11:49:00,63.3,43.1,29.95,ENE,68,0.0,0.6,48,0.00,,,0.00,WUHU216HW,2013-03-11 15:49:00,
2013-03-11 11:55:00,64.2,43.4,29.94,SE,135,0.0,0.6,47,0.00,,,0.00,WUHU216HW,2013-03-11 15:55:00,
2013-03-11 12:06:00,65.1,42.5,29.93,ENE,68,0.0,2.4,44,0.00,,,0.00,WUHU216HW,2013-03-11 16:06:00,
2013-03-11 12:11:00,65.4,42.8,29.92,SE,135,1.3,4.6,44,0.00,,,0.00,WUHU216HW,2013-03-11 16:11:00,
2013-03-11 12:16:00,66.0,43.3,29.92,ENE,68,2.0,4.6,44,0.00,,,0.00,WUHU216HW,2013-03-11 16:16:00,
2013-03-11 12:26:00,66.7,43.0,29.92,ENE,68,2.6,7.3,42,0.00,,,0.00,WUHU216HW,2013-03-11 16:26:00,
2013-03-11 12:32:00,66.9,43.0,29.92,ENE,68,0.0,7.3,42,0.00,,,0.00,WUHU216HW,2013-03-11 16:32:00,
2013-03-11 12:37:00,66.9,41.8,29.92,ENE,68,4.6,4.6,40,0.00,,,0.00,WUHU216HW,2013-03-11 16:37:00,
2013-03-11 12:42:00,66.9,41.8,29.92,South,180,0.0,4.6,40,0.00,,,0.00,WUHU216HW,2013-03-11 16:42:00,
2013-03-11 12:48:00,66.7,41.6,29.92,SE,135,9.1,9.1,40,0.00,,,0.00,WUHU216HW,2013-03-11 16:48:00,
2013-03-11 12:53:00,66.5,40.7,29.91,ESE,113,0.0,9.1,39,0.00,,,0.00,WUHU216HW,2013-03-11 16:53:00,
2013-03-11 12:58:00,66.3,40.6,29.90,ENE,68,0.0,8.0,40,0.00,,,0.00,WUHU216HW,2013-03-11 16:58:00,
2013-03-11 13:04:00,66.3,40.6,29.89,SE,135,8.0,8.0,39,0.00,,,0.00,WUHU216HW,2013-03-11 17:04:00,
2013-03-11 13:09:00,66.2,40.4,29.90,SE,135,0.0,8.0,39,0.00,,,0.00,WUHU216HW,2013-03-11 17:09:00,
2013-03-11 13:15:00,66.2,40.4,29.91,SE,135,0.6,2.0,39,0.00,,,0.00,WUHU216HW,2013-03-11 17:15:00,
2013-03-11 13:20:00,66.0,39.5,29.90,ENE,68,3.3,4.4,38,0.00,,,0.00,WUHU216HW,2013-03-11 17:20:00,
2013-03-11 13:30:00,65.6,39.9,29.89,SE,135,2.6,4.6,39,0.00,,,0.00,WUHU216HW,2013-03-11 17:30:00,
2013-03-11 13:35:00,66.0,39.5,29.87,ENE,68,0.0,2.6,38,0.00,,,0.00,WUHU216HW,2013-03-11 17:35:00,
2013-03-11 13:40:00,66.3,40.6,29.90,SE,135,0.0,2.6,39,0.00,,,0.00,WUHU216HW,2013-03-11 17:40:00,
2013-03-11 13:46:00,66.7,40.2,29.91,ESE,113,0.0,3.8,38,0.00,,,0.00,WUHU216HW,2013-03-11 17:46:00,
2013-03-11 13:52:00,66.9,40.3,29.90,ESE,113,4.4,5.5,38,0.00,,,0.00,WUHU216HW,2013-03-11 17:52:00,
2013-03-11 13:58:00,67.2,40.6,29.89,NE,45,2.4,5.8,38,0.00,,,0.00,WUHU216HW,2013-03-11 17:58:00,
2013-03-11 14:03:00,67.2,39.9,29.89,ESE,113,1.5,5.8,37,0.00,,,0.00,WUHU216HW,2013-03-11 18:03:00,
2013-03-11 14:08:00,67.2,39.9,29.88,SE,135,6.9,6.9,37,0.00,,,0.00,WUHU216HW,2013-03-11 18:08:00,
2013-03-11 14:14:00,67.2,39.9,29.86,ENE,68,2.2,6.9,37,0.00,,,0.00,WUHU216HW,2013-03-11 18:14:00,
2013-03-11 14:19:00,66.9,39.6,29.84,NE,45,3.8,3.8,37,0.00,,,0.00,WUHU216HW,2013-03-11 18:19:00,
2013-03-11 14:25:00,66.7,40.2,29.86,East,90,2.2,3.8,38,0.00,,,0.00,WUHU216HW,2013-03-11 18:25:00,
2013-03-11 14:31:00,66.7,40.2,29.85,SE,135,4.4,4.4,38,0.00,,,0.00,WUHU216HW,2013-03-11 18:31:00,
2013-03-11 14:36:00,66.5,40.0,29.85,ENE,68,0.0,4.4,38,0.00,,,0.00,WUHU216HW,2013-03-11 18:36:00,
2013-03-11 14:47:00,65.8,39.4,29.86,ESE,113,0.0,7.8,38,0.00,,,0.00,WUHU216HW,2013-03-11 18:47:00,
2013-03-11 14:53:00,65.3,38.9,29.87,East,90,0.0,3.5,38,0.00,,,0.00,WUHU216HW,2013-03-11 18:53:00,
2013-03-11 14:58:00,64.9,38.4,29.87,ENE,68,2.6,5.1,38,0.00,,,0.00,WUHU216HW,2013-03-11 18:58:00,
2013-03-11 15:04:00,64.5,39.0,29.86,SE,135,0.0,5.1,39,0.00,,,0.00,WUHU216HW,2013-03-11 19:04:00,
2013-03-11 15:10:00,64.2,38.6,29.87,SE,135,0.0,2.6,39,0.00,,,0.00,WUHU216HW,2013-03-11 19:10:00,
2013-03-11 15:15:00,64.0,38.5,29.87,ENE,68,0.8,0.8,39,0.00,,,0.00,WUHU216HW,2013-03-11 19:15:00,
2013-03-11 15:20:00,64.0,39.2,29.86,SE,135,0.0,4.0,39,0.00,,,0.00,WUHU216HW,2013-03-11 19:20:00,
2013-03-11 15:25:00,64.2,39.3,29.85,SE,135,1.5,4.0,40,0.00,,,0.00,WUHU216HW,2013-03-11 19:25:00,
2013-03-11 15:36:00,64.7,39.1,29.84,ESE,113,0.0,1.3,39,0.00,,,0.00,WUHU216HW,2013-03-11 19:36:00,
2013-03-11 15:42:00,64.5,39.0,29.85,ENE,68,0.6,4.4,39,0.00,,,0.00,WUHU216HW,2013-03-11 19:42:00,
2013-03-11 15:47:00,64.2,38.6,29.84,ENE,68,0.0,4.4,39,0.00,,,0.00,WUHU216HW,2013-03-11 19:47:00,
2013-03-11 15:53:00,64.0,38.5,29.84,SE,135,0.0,0.0,39,0.00,,,0.00,WUHU216HW,2013-03-11 19:53:00,
2013-03-11 15:58:00,63.5,38.0,29.83,SE,135,4.4,4.4,39,0.00,,,0.00,WUHU216HW,2013-03-11 19:58:00,
2013-03-11 16:03:00,63.3,37.8,29.83,SE,135,6.4,6.4,39,0.00,,,0.00,WUHU216HW,2013-03-11 20:03:00,
2013-03-11 16:08:00,63.1,37.7,29.82,East,90,0.0,6.4,39,0.00,,,0.00,WUHU216HW,2013-03-11 20:08:00,
2013-03-11 16:14:00,63.1,38.4,29.82,NE,45,2.9,6.4,40,0.00,,,0.00,WUHU216HW,2013-03-11 20:14:00,
2013-03-11 16:19:00,62.9,38.2,29.83,SE,135,6.2,6.2,40,0.00,,,0.00,WUHU216HW,2013-03-11 20:19:00,
2013-03-11 16:24:00,62.7,38.1,29.82,SE,135,4.9,6.2,40,0.00,,,0.00,WUHU216HW,2013-03-11 20:24:00,
2013-03-11 16:29:00,62.7,38.1,29.80,SE,135,4.6,6.2,40,0.00,,,0.00,WUHU216HW,2013-03-11 20:29:00,
2013-03-11 16:35:00,62.6,37.9,29.79,ENE,68,2.6,4.9,40,0.00,,,0.00,WUHU216HW,2013-03-11 20:35:00,
2013-03-11 16:40:00,62.4,37.7,29.79,ESE,113,2.6,2.6,40,0.00,,,0.00,WUHU216HW,2013-03-11 20:40:00,
2013-03-11 16:45:00,62.4,38.3,29.78,ESE,113,4.0,5.3,41,0.00,,,0.00,WUHU216HW,2013-03-11 20:45:00,
2013-03-11 16:51:00,62.4,38.3,29.78,SE,135,4.9,5.3,41,0.00,,,0.00,WUHU216HW,2013-03-11 20:51:00,
2013-03-11 16:56:00,62.0,38.1,29.79,SE,135,6.9,6.9,41,0.00,,,0.00,WUHU216HW,2013-03-11 20:56:00,
2013-03-11 17:01:00,61.7,38.2,29.81,ESE,113,0.0,6.9,42,0.00,,,0.00,WUHU216HW,2013-03-11 21:01:00,
2013-03-11 17:07:00,61.5,38.6,29.79,NNE,23,1.7,6.9,43,0.00,,,0.00,WUHU216HW,2013-03-11 21:07:00,
2013-03-11 17:13:00,61.3,38.5,29.80,SE,135,2.4,3.5,43,0.00,,,0.00,WUHU216HW,2013-03-11 21:13:00,
2013-03-11 17:19:00,61.3,39.1,29.81,SE,135,2.6,2.6,44,0.00,,,0.00,WUHU216HW,2013-03-11 21:19:00,
2013-03-11 17:25:00,61.3,39.1,29.80,NE,45,0.0,2.6,44,0.00,,,0.00,WUHU216HW,2013-03-11 21:25:00,
2013-03-11 17:30:00,61.1,38.9,29.79,SE,135,2.2,2.2,44,0.00,,,0.00,WUHU216HW,2013-03-11 21:30:00,
2013-03-11 17:35:00,60.9,39.3,29.78,ENE,68,3.5,3.5,45,0.00,,,0.00,WUHU216HW,2013-03-11 21:35:00,
2013-03-11 17:40:00,60.9,39.3,29.79,SE,135,6.4,6.4,45,0.00,,,0.00,WUHU216HW,2013-03-11 21:40:00,
2013-03-11 17:46:00,60.6,39.6,29.77,East,90,2.6,6.4,46,0.00,,,0.00,WUHU216HW,2013-03-11 21:46:00,
2013-03-11 17:52:00,60.6,39.6,29.79,SE,135,4.2,6.4,46,0.00,,,0.00,WUHU216HW,2013-03-11 21:52:00,
2013-03-11 17:58:00,60.4,40.0,29.79,SE,135,0.6,6.0,47,0.00,,,0.00,WUHU216HW,2013-03-11 21:58:00,
2013-03-11 18:03:00,60.4,40.6,29.79,ESE,113,4.4,4.4,48,0.00,,,0.00,WUHU216HW,2013-03-11 22:03:00,
2013-03-11 18:09:00,59.9,40.6,29.79,NE,45,1.5,10.5,49,0.00,,,0.00,WUHU216HW,2013-03-11 22:09:00,
2013-03-11 18:14:00,59.7,41.1,29.78,ENE,68,2.2,10.5,50,0.00,,,0.00,WUHU216HW,2013-03-11 22:14:00,
2013-03-11 18:19:00,59.5,40.9,29.78,ENE,68,1.5,2.2,50,0.00,,,0.00,WUHU216HW,2013-03-11 22:19:00,
2013-03-11 18:25:00,59.3,41.2,29.78,SE,135,0.0,4.2,51,0.00,,,0.00,WUHU216HW,2013-03-11 22:25:00,
2013-03-11 18:30:00,59.0,41.0,29.77,ESE,113,10.7,10.7,51,0.00,,,0.00,WUHU216HW,2013-03-11 22:30:00,
2013-03-11 18:35:00,59.0,40.9,29.77,ENE,68,0.0,10.7,51,0.00,,,0.00,WUHU216HW,2013-03-11 22:35:00,
2013-03-11 18:41:00,58.8,41.2,29.78,SE,135,0.0,10.7,52,0.00,,,0.00,WUHU216HW,2013-03-11 22:41:00,
2013-03-11 18:46:00,58.8,41.2,29.78,SE,135,2.6,8.7,52,0.00,,,0.00,WUHU216HW,2013-03-11 22:46:00,
2013-03-11 18:52:00,58.8,41.7,29.79,East,90,0.0,8.7,53,0.00,,,0.00,WUHU216HW,2013-03-11 22:52:00,
2013-03-11 18:58:00,58.8,42.1,29.79,ENE,68,0.0,0.0,54,0.00,,,0.00,WUHU216HW,2013-03-11 22:58:00,
2013-03-11 19:03:00,58.6,42.4,29.79,ENE,68,0.0,0.0,55,0.00,,,0.00,WUHU216HW,2013-03-11 23:03:00,
2013-03-11 19:09:00,58.1,42.4,29.79,East,90,0.0,4.4,56,0.00,,,0.00,WUHU216HW,2013-03-11 23:09:00,
2013-03-11 19:14:00,57.7,42.6,29.79,ESE,113,0.0,4.4,57,0.00,,,0.00,WUHU216HW,2013-03-11 23:14:00,
2013-03-11 19:20:00,57.3,43.2,29.79,SE,135,0.0,3.1,59,0.00,,,0.00,WUHU216HW,2013-03-11 23:20:00,
2013-03-11 19:26:00,56.8,42.6,29.79,SSE,158,0.0,0.0,59,0.00,,,0.00,WUHU216HW,2013-03-11 23:26:00,
2013-03-11 19:32:00,56.3,42.6,29.79,SE,135,0.0,0.0,60,0.00,,,0.00,WUHU216HW,2013-03-11 23:32:00,
2013-03-11 19:37:00,56.1,42.8,29.79,SE,135,4.4,4.4,61,0.00,,,0.00,WUHU216HW,2013-03-11 23:37:00,
2013-03-11 19:42:00,55.9,42.6,29.79,NE,45,0.0,4.4,61,0.00,,,0.00,WUHU216HW,2013-03-11 23:42:00,
2013-03-11 19:53:00,55.5,42.7,29.78,SE,135,0.0,0.0,62,0.00,,,0.00,WUHU216HW,2013-03-11 23:53:00,
2013-03-11 19:59:00,55.2,42.7,29.78,ENE,68,0.0,0.0,63,0.00,,,0.00,WUHU216HW,2013-03-11 23:59:00,
2013-03-11 20:04:00,55.2,42.7,29.78,ENE,68,0.0,0.0,63,0.00,,,0.00,WUHU216HW,2013-03-12 00:04:00,
2013-03-11 20:10:00,55.0,43.0,29.77,East,90,0.0,0.0,64,0.00,,,0.00,WUHU216HW,2013-03-12 00:10:00,
2013-03-11 20:19:00,55.0,43.0,29.77,East,90,0.0,0.0,64,0.00,,,0.00,WUHU216HW,2013-03-12 00:19:00,
2013-03-11 20:24:00,54.6,43.1,29.77,SE,135,0.0,0.0,65,0.00,,,0.00,WUHU216HW,2013-03-12 00:24:00,
2013-03-11 20:33:00,55.0,43.4,29.78,ESE,113,0.0,0.0,65,0.00,,,0.00,WUHU216HW,2013-03-12 00:33:00,
2013-03-11 20:39:00,55.2,43.6,29.79,SE,135,0.0,0.0,65,0.00,,,0.00,WUHU216HW,2013-03-12 00:39:00,
2013-03-11 20:44:00,55.2,43.6,29.78,SE,135,0.0,0.0,65,0.00,,,0.00,WUHU216HW,2013-03-12 00:44:00,
2013-03-11 20:50:00,55.4,43.7,29.77,ESE,113,0.0,0.0,65,0.00,,,0.00,WUHU216HW,2013-03-12 00:50:00,
2013-03-11 20:56:00,55.5,43.9,29.76,ESE,113,0.0,0.0,65,0.00,,,0.00,WUHU216HW,2013-03-12 00:56:00,
2013-03-11 21:01:00,55.7,44.1,29.76,East,90,0.0,0.0,65,0.00,,,0.00,WUHU216HW,2013-03-12 01:01:00,
2013-03-11 21:07:00,55.9,44.2,29.77,SE,135,0.0,0.0,65,0.00,,,0.00,WUHU216HW,2013-03-12 01:07:00,
2013-03-11 21:12:00,55.9,44.2,29.78,ESE,113,0.0,0.0,65,0.00,,,0.00,WUHU216HW,2013-03-12 01:12:00,
2013-03-11 21:17:00,56.1,44.4,29.78,ENE,68,0.0,0.0,65,0.00,,,0.00,WUHU216HW,2013-03-12 01:17:00,
2013-03-11 21:22:00,56.3,44.6,29.78,SSW,203,7.3,7.3,65,0.00,,,0.00,WUHU216HW,2013-03-12 01:22:00,
2013-03-11 21:28:00,56.4,44.8,29.77,East,90,0.0,7.3,65,0.00,,,0.00,WUHU216HW,2013-03-12 01:28:00,
2013-03-11 21:34:00,56.8,44.7,29.77,SE,135,5.5,5.5,64,0.00,,,0.00,WUHU216HW,2013-03-12 01:34:00,
2013-03-11 21:40:00,56.8,44.7,29.77,SSE,158,4.9,5.5,64,0.00,,,0.00,WUHU216HW,2013-03-12 01:40:00,
2013-03-11 21:45:00,57.0,44.9,29.77,ESE,113,1.7,5.5,64,0.00,,,0.00,WUHU216HW,2013-03-12 01:45:00,
2013-03-11 21:50:00,57.0,45.3,29.77,SSE,158,0.0,5.5,65,0.00,,,0.00,WUHU216HW,2013-03-12 01:50:00,
2013-03-11 21:56:00,57.3,45.2,29.77,NNE,23,0.0,5.5,64,0.00,,,0.00,WUHU216HW,2013-03-12 01:56:00,
2013-03-11 22:02:00,57.3,45.6,29.78,ESE,113,0.0,0.0,65,0.00,,,0.00,WUHU216HW,2013-03-12 02:02:00,
2013-03-11 22:08:00,57.3,46.0,29.79,East,90,0.0,0.0,65,0.00,,,0.00,WUHU216HW,2013-03-12 02:08:00,
2013-03-11 22:14:00,57.3,46.4,29.78,ESE,113,3.1,3.1,67,0.00,,,0.00,WUHU216HW,2013-03-12 02:14:00,
2013-03-11 22:19:00,57.0,46.5,29.79,SSW,203,0.0,3.1,68,0.00,,,0.00,WUHU216HW,2013-03-12 02:19:00,
2013-03-11 22:25:00,56.8,46.7,29.79,ENE,68,0.0,0.0,69,0.00,,,0.00,WUHU216HW,2013-03-12 02:25:00,
2013-03-11 22:30:00,56.1,46.5,29.79,ESE,113,0.0,0.0,70,0.02,,,0.02,WUHU216HW,2013-03-12 02:30:00,
2013-03-11 22:36:00,55.9,46.6,29.80,NE,45,5.1,5.1,71,0.02,,,0.02,WUHU216HW,2013-03-12 02:36:00,
2013-03-11 22:42:00,55.5,46.7,29.80,SE,135,0.0,5.1,72,0.02,,,0.02,WUHU216HW,2013-03-12 02:42:00,
2013-03-11 22:47:00,55.2,47.0,29.81,SSE,158,0.0,5.1,74,0.02,,,0.02,WUHU216HW,2013-03-12 02:47:00,
2013-03-11 22:52:00,54.8,47.0,29.80,ENE,68,0.0,0.0,75,0.04,,,0.04,WUHU216HW,2013-03-12 02:52:00,
2013-03-11 22:58:00,54.5,47.0,29.80,East,90,0.0,0.0,76,0.04,,,0.04,WUHU216HW,2013-03-12 02:58:00,
2013-03-11 23:03:00,54.3,47.2,29.80,East,90,0.0,0.0,77,0.04,,,0.04,WUHU216HW,2013-03-12 03:03:00,
2013-03-11 23:09:00,54.1,47.0,29.80,NE,45,0.0,0.0,77,0.04,,,0.04,WUHU216HW,2013-03-12 03:09:00,
2013-03-11 23:14:00,53.9,47.2,29.80,ESE,113,0.0,0.0,78,0.04,,,0.04,WUHU216HW,2013-03-12 03:14:00,
2013-03-11 23:19:00,53.7,47.1,29.80,SE,135,0.0,0.0,78,0.04,,,0.04,WUHU216HW,2013-03-12 03:19:00,
2013-03-11 23:25:00,53.7,47.4,29.80,ESE,113,0.0,0.0,79,0.04,,,0.04,WUHU216HW,2013-03-12 03:25:00,
2013-03-11 23:30:00,53.4,47.4,29.80,East,90,0.0,0.0,80,0.02,,,0.04,WUHU216HW,2013-03-12 03:30:00,
2013-03-11 23:35:00,53.4,47.4,29.80,ENE,68,0.0,0.0,80,0.04,,,0.06,WUHU216HW,2013-03-12 03:35:00,
2013-03-11 23:41:00,53.2,47.3,29.80,ENE,68,0.0,0.0,80,0.04,,,0.06,WUHU216HW,2013-03-12 03:41:00,
2013-03-11 23:47:00,52.8,46.9,29.80,ENE,68,0.0,0.0,80,0.04,,,0.06,WUHU216HW,2013-03-12 03:47:00,
2013-03-11 23:53:00,52.8,47.2,29.80,ENE,68,0.0,0.0,81,0.02,,,0.06,WUHU216HW,2013-03-12 03:53:00,